Location: Hurstbourne Priors
(51.2000°N, 1.3667°W)
Time: 19:21:44
(UTC+00:00)

Transit 4A - Pass Details

Date: 23 April 2021
Orbit: 870 x 974 km, 66.8° (Epoch: 09 May)

Event Time Altitude Azimuth Distance (km) Brightness Sun altitude
Rises 08:32:50 0° 316° (NW) 3,513 10.4 32.7°
Reaches altitude 10° 08:35:43 10° 305° (NW) 2,555 9.8 33.2°
Maximum altitude 08:40:29 26° 250° (WSW) 1,650 9.1 33.8°
Drops below altitude 10° 08:45:12 10° 196° (SSW) 2,513 10.4 34.5°
Sets 08:48:01 0° 184° (S) 3,444 11.1 34.9°
